TimeMDT,TemperatureF,Dew PointF,Humidity,Sea Level PressureIn,VisibilityMPH,Wind Direction,Wind SpeedMPH,Gust SpeedMPH,PrecipitationIn,Events,Conditions,WindDirDegrees,DateUTC
12:53 AM,42.1,27.0,55,29.98,10.0,NNW,8.1,-,N/A,,Clear,330,2012-11-01 06:53:00
1:53 AM,43.0,27.0,53,29.95,10.0,NW,6.9,-,N/A,,Clear,320,2012-11-01 07:53:00
2:53 AM,39.9,27.0,60,29.93,10.0,NNW,5.8,-,N/A,,Clear,330,2012-11-01 08:53:00
3:53 AM,39.9,28.0,63,29.90,10.0,NNW,6.9,-,N/A,,Clear,330,2012-11-01 09:53:00
4:53 AM,37.9,28.0,68,29.90,10.0,SW,4.6,-,N/A,,Clear,230,2012-11-01 10:53:00
5:53 AM,39.0,27.0,62,29.91,10.0,WNW,8.1,-,N/A,,Clear,300,2012-11-01 11:53:00
6:53 AM,41.0,26.1,55,29.93,10.0,South,5.8,-,N/A,,Clear,190,2012-11-01 12:53:00
7:53 AM,34.0,24.1,67,29.94,10.0,Calm,Calm,-,N/A,,Clear,0,2012-11-01 13:53:00
8:53 AM,39.0,27.0,62,29.96,10.0,NW,6.9,-,N/A,,Clear,310,2012-11-01 14:53:00
9:53 AM,43.0,28.0,56,29.94,10.0,NW,3.5,-,N/A,,Clear,310,2012-11-01 15:53:00
10:53 AM,46.9,28.0,48,29.94,10.0,North,4.6,-,N/A,,Clear,350,2012-11-01 16:53:00
11:53 AM,51.1,27.0,39,29.90,10.0,Calm,Calm,-,N/A,,Clear,0,2012-11-01 17:53:00
12:53 PM,57.0,27.0,32,29.84,10.0,NNE,4.6,-,N/A,,Clear,30,2012-11-01 18:53:00
1:53 PM,60.1,25.0,26,29.80,10.0,North,4.6,-,N/A,,Clear,360,2012-11-01 19:53:00
2:53 PM,60.1,27.0,28,29.80,10.0,North,6.9,-,N/A,,Clear,350,2012-11-01 20:53:00
3:53 PM,57.9,27.0,31,29.81,10.0,NNW,5.8,-,N/A,,Clear,340,2012-11-01 21:53:00
4:53 PM,57.9,21.9,25,29.83,10.0,WNW,5.8,-,N/A,,Clear,290,2012-11-01 22:53:00
5:53 PM,53.1,28.0,38,29.85,10.0,WSW,6.9,-,N/A,,Scattered Clouds,240,2012-11-01 23:53:00
6:53 PM,54.0,21.9,29,29.86,10.0,WNW,9.2,-,N/A,,Scattered Clouds,290,2012-11-02 00:53:00
7:53 PM,52.0,21.9,31,29.90,10.0,NW,6.9,-,N/A,,Clear,320,2012-11-02 01:53:00
8:53 PM,50.0,24.1,36,29.88,10.0,West,8.1,-,N/A,,Clear,280,2012-11-02 02:53:00
9:53 PM,51.1,23.0,33,29.88,10.0,West,15.0,-,N/A,,Clear,270,2012-11-02 03:53:00
10:53 PM,50.0,24.1,36,29.88,10.0,West,16.1,-,N/A,,Partly Cloudy,270,2012-11-02 04:53:00
11:53 PM,46.9,27.0,46,29.89,10.0,NW,17.3,-,N/A,,Mostly Cloudy,320,2012-11-02 05:53:00